Date String (YYYY-MM-DD hh:mm:ss) UTC,Instrument flags,Ambient pressure (hPa),Sample flow (lpm),Bypass flow (lpm),Sample temperature (°C),Ambient temperature (°C),ASC tube jacket temperature (°C),LED temperature (°C),Box temperature (°C),Sample RH (%),Span deviation,Mass concentration (μg/m³),Mass concentration (μg/m³),Mass concentration (μg/m³)
DateTimeUTC,F1_M11,P_M11,Q1_M11,Q2_M11,T1_M11,T2_M11,T3_M11,T4_M11,T5_M11,U1_M11,ZSPAN_M11,X0_M11,X2_M11,X1_M11
2021-12-13 20:00:00,,0823.2,5.01,0.00,28.0,27.4,00.0,36.8,29.9,05.6,0000.0,0009.48,0003.36,0002.45
2021-12-13 20:01:00,,0823.2,5.00,0.00,28.1,27.4,00.0,36.9,29.9,05.6,0000.0,0009.67,0003.39,0002.49
2021-12-13 20:02:00,,0823.1,5.00,0.00,28.1,27.4,00.0,36.9,30.0,05.6,0000.0,0010.82,0003.41,0002.52
2021-12-13 20:03:00,,0823.2,5.01,0.00,28.1,27.5,00.0,36.9,30.0,05.6,0000.0,0010.51,0003.40,0002.55
2021-12-13 20:04:00,,0823.2,5.00,0.00,28.2,27.5,00.0,36.9,30.0,05.6,0000.0,0010.97,0003.39,0002.55
2021-12-13 20:05:00,,0823.2,5.00,0.00,28.2,27.5,00.0,37.0,30.1,05.5,0000.0,0011.41,0003.42,0002.60
2021-12-13 20:06:00,,0823.2,5.00,0.00,28.2,27.5,00.0,37.0,30.1,05.5,0000.0,0012.28,0003.47,0002.63
2021-12-13 20:07:00,,0823.2,4.99,0.00,28.2,27.5,00.0,37.0,30.0,05.5,0000.0,0012.32,0003.50,0002.64
2021-12-13 20:08:00,,0823.2,5.00,0.00,28.2,27.5,00.0,37.0,30.1,05.5,0000.0,0012.19,0003.50,0002.63
2021-12-13 20:09:00,,0823.1,5.00,0.00,28.2,27.6,00.0,37.1,30.1,05.4,0000.0,0011.30,0003.49,0002.63
2021-12-13 20:10:00,,0823.1,5.00,0.00,28.3,27.6,00.0,37.1,30.1,05.4,0000.0,0011.34,0003.49,0002.63
2021-12-13 20:11:00,,0823.1,5.02,0.00,28.3,27.6,00.0,37.1,30.1,05.4,0000.0,0011.94,0003.53,0002.62
2021-12-13 20:12:00,,0823.1,5.00,0.00,28.3,27.6,00.0,37.1,30.1,05.4,0000.0,0011.94,0003.54,0002.62
2021-12-13 20:13:00,,0823.1,5.00,0.00,28.3,27.6,00.0,37.1,30.1,05.4,0000.0,0010.45,0003.51,0002.61
2021-12-13 20:14:00,,0823.1,5.00,0.00,28.3,27.7,00.0,37.2,30.1,05.4,0000.0,0010.13,0003.50,0002.62
2021-12-13 20:15:00,,0823.1,4.99,0.00,28.3,27.7,00.0,37.2,30.2,05.5,0000.0,0010.91,0003.52,0002.63
2021-12-13 20:16:00,,0823.0,5.00,0.00,28.4,27.7,00.0,37.2,30.2,05.5,0000.0,0010.75,0003.57,0002.64
2021-12-13 20:17:00,,0823.0,4.99,0.00,28.4,27.7,00.0,37.2,30.2,05.5,0000.0,0010.28,0003.63,0002.67
2021-12-13 20:18:00,,0823.0,5.00,0.00,28.4,27.7,00.0,37.3,30.2,05.5,0000.0,0010.95,0003.66,0002.72
2021-12-13 20:19:00,,0823.0,5.00,0.00,28.4,27.7,00.0,37.3,30.2,05.5,0000.0,0011.03,0003.65,0002.76
2021-12-13 20:20:00,,0823.1,5.00,0.00,28.4,27.7,00.0,37.3,30.2,05.5,0000.0,0011.03,0003.67,0002.80
2021-12-13 20:21:00,,0823.1,4.99,0.00,28.4,27.8,00.0,37.3,30.3,05.5,0000.0,0010.57,0003.63,0002.83
2021-12-13 20:22:00,,0823.1,5.01,0.00,28.5,27.8,00.0,37.3,30.3,05.5,0000.0,0010.23,0003.62,0002.85
2021-12-13 20:23:00,,0823.1,5.00,0.00,28.5,27.8,00.0,37.4,30.3,05.5,0000.0,0010.42,0003.67,0002.88
2021-12-13 20:24:00,,0823.1,5.00,0.00,28.5,27.9,00.0,37.4,30.3,05.5,0000.0,0011.30,0003.70,0002.90
2021-12-13 20:25:00,,0823.1,5.00,0.00,28.5,27.9,00.0,37.4,30.4,05.5,0000.0,0011.91,0003.76,0002.88
2021-12-13 20:26:00,,0822.9,5.00,0.00,28.6,27.9,00.0,37.4,30.4,05.5,0000.0,0011.08,0003.80,0002.89
2021-12-13 20:27:00,,0823.0,5.00,0.00,28.6,27.9,00.0,37.4,30.4,05.5,0000.0,0011.17,0003.77,0002.89
2021-12-13 20:28:00,,0823.0,5.00,0.00,28.6,27.9,00.0,37.5,30.4,05.4,0000.0,0011.72,0003.73,0002.86
2021-12-13 20:29:00,,0822.9,5.00,0.00,28.6,27.9,00.0,37.5,30.4,05.5,0000.0,0011.72,0003.69,0002.84
2021-12-13 20:30:00,,0823.1,5.00,0.00,28.6,28.0,00.0,37.5,30.4,05.6,0000.0,0012.05,0003.74,0002.84
2021-12-13 20:31:00,,0823.0,4.99,0.00,28.6,28.0,00.0,37.5,30.5,05.6,0000.0,0012.21,0003.83,0002.86
2021-12-13 20:32:00,,0823.0,5.00,0.00,28.7,28.0,00.0,37.5,30.5,05.6,0000.0,0012.73,0003.90,0002.90
2021-12-13 20:33:00,,0823.0,4.99,0.00,28.7,28.0,00.0,37.5,30.5,05.6,0000.0,0012.74,0003.94,0002.94
2021-12-13 20:34:00,,0822.9,5.00,0.00,28.7,28.1,00.0,37.6,30.5,05.6,0000.0,0012.56,0003.97,0002.98
2021-12-13 20:35:00,,0822.9,5.00,0.00,28.7,28.1,00.0,37.6,30.6,05.6,0000.0,0012.19,0004.02,0003.04
2021-12-13 20:36:00,,0822.9,5.00,0.00,28.7,28.1,00.0,37.6,30.6,05.6,0000.0,0011.49,0004.02,0003.11
2021-12-13 20:37:00,,0823.0,5.01,0.00,28.8,28.1,00.0,37.6,30.6,05.6,0000.0,0011.23,0004.03,0003.13
2021-12-13 20:38:00,,0822.9,4.99,0.00,28.8,28.1,00.0,37.6,30.6,05.5,0000.0,0011.20,0004.05,0003.16
2021-12-13 20:39:00,,0823.0,4.99,0.00,28.8,28.1,00.0,37.7,30.6,05.5,0000.0,0010.35,0004.07,0003.19
2021-12-13 20:40:00,,0822.9,5.01,0.00,28.8,28.1,00.0,37.7,30.6,05.5,0000.0,0009.95,0004.06,0003.21
2021-12-13 20:41:00,,0822.9,4.99,0.00,28.8,28.2,00.0,37.7,30.6,05.5,0000.0,0009.68,0004.00,0003.23
2021-12-13 20:42:00,,0822.9,5.02,0.00,28.8,28.2,00.0,37.7,30.7,05.5,0000.0,0009.57,0003.95,0003.24
2021-12-13 20:43:00,,0822.9,4.99,0.00,28.9,28.2,00.0,37.7,30.7,05.5,0000.0,0009.33,0003.95,0003.24
2021-12-13 20:44:00,,0823.0,4.99,0.00,28.9,28.2,00.0,37.8,30.7,05.6,0000.0,0009.78,0003.97,0003.25
2021-12-13 20:45:00,,0822.9,5.00,0.00,28.9,28.2,00.0,37.8,30.7,05.6,0000.0,0010.85,0003.97,0003.26
2021-12-13 20:46:00,,0822.9,5.00,0.00,28.9,28.2,00.0,37.8,30.7,05.6,0000.0,0011.13,0003.94,0003.26
2021-12-13 20:47:00,,0823.0,4.99,0.00,28.9,28.3,00.0,37.8,30.8,05.6,0000.0,0011.39,0003.92,0003.28
2021-12-13 20:48:00,,0823.0,5.00,0.00,28.9,28.3,00.0,37.8,30.8,05.6,0000.0,0011.84,0003.96,0003.30
2021-12-13 20:49:00,,0823.0,5.00,0.00,29.0,28.3,00.0,37.8,30.8,05.5,0000.0,0012.31,0004.00,0003.31
2021-12-13 20:50:00,,0823.0,5.00,0.00,29.0,28.3,00.0,37.9,30.8,05.5,0000.0,0012.93,0004.07,0003.33
2021-12-13 20:51:00,,0823.0,5.00,0.00,29.0,28.3,00.0,37.9,30.8,05.5,0000.0,0013.24,0004.10,0003.33
2021-12-13 20:52:00,,0822.9,5.00,0.00,29.0,28.3,00.0,37.9,30.8,05.5,0000.0,0012.85,0004.11,0003.33
2021-12-13 20:53:00,,0822.8,5.00,0.00,29.0,28.3,00.0,37.9,30.8,05.5,0000.0,0013.05,0004.11,0003.33
2021-12-13 20:54:00,,0822.8,5.01,0.00,29.0,28.3,00.0,37.9,30.8,05.5,0000.0,0013.59,0004.14,0003.33
2021-12-13 20:55:00,,0822.9,5.01,0.00,29.1,28.4,00.0,37.9,30.8,05.5,0000.0,0013.84,0004.18,0003.34
2021-12-13 20:56:00,,0822.8,4.99,0.00,29.1,28.4,00.0,38.0,30.9,05.5,0000.0,0013.21,0004.19,0003.35
2021-12-13 20:57:00,,0822.8,5.01,0.00,29.1,28.4,00.0,38.0,30.9,05.5,0000.0,0013.76,0004.23,0003.36
2021-12-13 20:58:00,,0822.8,5.00,0.00,29.1,28.4,00.0,38.0,30.9,05.5,0000.0,0013.77,0004.31,0003.37
2021-12-13 20:59:00,,0822.8,4.98,0.00,29.1,28.4,00.0,38.0,30.9,05.5,0000.0,0015.21,0004.35,0003.37
